Year,Month,Day,Hour,Minute,Value (Times are PST for temperature in C)
2023,11,04,00,00,11.40
2023,11,04,00,01,11.40
2023,11,04,00,02,11.40
2023,11,04,00,03,11.40
2023,11,04,00,04,11.40
2023,11,04,00,05,11.60
2023,11,04,00,06,11.60
2023,11,04,00,07,11.60
2023,11,04,00,08,11.60
2023,11,04,00,09,11.70
2023,11,04,00,10,11.70
2023,11,04,00,11,11.70
2023,11,04,00,12,11.70
2023,11,04,00,13,11.70
2023,11,04,00,14,11.80
2023,11,04,00,15,11.80
2023,11,04,00,16,11.80
2023,11,04,00,17,11.80
2023,11,04,00,18,11.80
2023,11,04,00,19,11.80
2023,11,04,00,20,11.80
2023,11,04,00,21,11.80
2023,11,04,00,22,11.80
2023,11,04,00,23,11.80
2023,11,04,00,24,11.80
2023,11,04,00,25,11.80
2023,11,04,00,26,11.80
2023,11,04,00,27,11.80
2023,11,04,00,28,11.80
2023,11,04,00,29,11.80
2023,11,04,00,30,11.80
2023,11,04,00,31,11.80
2023,11,04,00,32,11.80
2023,11,04,00,33,11.80
2023,11,04,00,34,11.80
2023,11,04,00,35,11.80
2023,11,04,00,36,11.80
2023,11,04,00,37,11.80
2023,11,04,00,38,11.80
2023,11,04,00,39,11.80
2023,11,04,00,40,11.80
2023,11,04,00,41,11.80
2023,11,04,00,42,11.80
2023,11,04,00,43,11.80
2023,11,04,00,44,11.80
2023,11,04,00,45,11.90
2023,11,04,00,46,11.90
2023,11,04,00,47,11.90
2023,11,04,00,48,11.90
2023,11,04,00,49,11.90
2023,11,04,00,50,11.80
2023,11,04,00,51,11.80
2023,11,04,00,52,11.80
2023,11,04,00,53,11.80
2023,11,04,00,54,11.80
2023,11,04,00,55,11.80
2023,11,04,00,56,11.80
2023,11,04,00,57,11.90
2023,11,04,00,58,11.80
2023,11,04,00,59,11.80
2023,11,04,01,00,11.90
2023,11,04,01,01,11.90
2023,11,04,01,02,11.90
2023,11,04,01,03,11.90
2023,11,04,01,04,11.90
2023,11,04,01,05,11.90
2023,11,04,01,06,11.90
2023,11,04,01,07,11.90
2023,11,04,01,08,11.90
2023,11,04,01,09,11.90
2023,11,04,01,10,11.90
2023,11,04,01,11,11.90
2023,11,04,01,12,12.00
2023,11,04,01,13,12.00
2023,11,04,01,14,12.00
2023,11,04,01,15,12.00
2023,11,04,01,16,12.00
2023,11,04,01,17,12.00
2023,11,04,01,18,12.00
2023,11,04,01,19,12.10
2023,11,04,01,20,12.10
2023,11,04,01,21,12.10
2023,11,04,01,22,12.10
2023,11,04,01,23,12.10
2023,11,04,01,24,12.10
2023,11,04,01,25,12.10
2023,11,04,01,26,12.10
2023,11,04,01,27,12.20
2023,11,04,01,28,12.20
2023,11,04,01,29,12.20
2023,11,04,01,30,12.20
2023,11,04,01,31,12.20
2023,11,04,01,32,12.20
2023,11,04,01,33,12.30
2023,11,04,01,34,12.30
2023,11,04,01,35,12.30
2023,11,04,01,36,12.30
2023,11,04,01,37,12.30
2023,11,04,01,38,12.30
2023,11,04,01,39,12.40
2023,11,04,01,40,12.40
2023,11,04,01,41,12.40
2023,11,04,01,42,12.40
2023,11,04,01,43,12.40
2023,11,04,01,44,12.50
2023,11,04,01,45,12.50
2023,11,04,01,46,12.50
2023,11,04,01,47,12.50
2023,11,04,01,48,12.50
2023,11,04,01,49,12.50
2023,11,04,01,50,12.60
2023,11,04,01,51,12.60
2023,11,04,01,52,12.60
2023,11,04,01,53,12.60
2023,11,04,01,54,12.60
2023,11,04,01,55,12.60
2023,11,04,01,56,12.70
2023,11,04,01,57,12.70
2023,11,04,01,58,12.70
2023,11,04,01,59,12.70
2023,11,04,02,00,12.70
2023,11,04,02,01,12.80
2023,11,04,02,02,12.80
2023,11,04,02,03,12.80
2023,11,04,02,04,12.80
2023,11,04,02,05,12.80
2023,11,04,02,06,12.80
2023,11,04,02,07,12.80
2023,11,04,02,08,12.80
2023,11,04,02,09,12.90
2023,11,04,02,10,12.90
2023,11,04,02,11,13.00
2023,11,04,02,12,13.00
2023,11,04,02,13,13.00
2023,11,04,02,14,13.00
2023,11,04,02,15,13.00
2023,11,04,02,16,13.00
2023,11,04,02,17,13.00
2023,11,04,02,18,13.00
2023,11,04,02,19,13.10
2023,11,04,02,20,13.10
2023,11,04,02,21,13.10
2023,11,04,02,22,13.10
2023,11,04,02,23,13.10
2023,11,04,02,24,13.10
2023,11,04,02,25,13.20
2023,11,04,02,26,13.20
2023,11,04,02,27,13.20
2023,11,04,02,28,13.20
2023,11,04,02,29,13.20
2023,11,04,02,30,13.20
2023,11,04,02,31,13.30
2023,11,04,02,32,13.30
2023,11,04,02,33,13.30
2023,11,04,02,34,13.30
2023,11,04,02,35,13.30
2023,11,04,02,36,13.30
2023,11,04,02,37,13.30
2023,11,04,02,38,13.30
2023,11,04,02,39,13.30
2023,11,04,02,40,13.30
2023,11,04,02,41,13.30
2023,11,04,02,42,13.30
2023,11,04,02,43,13.30
2023,11,04,02,44,13.30
2023,11,04,02,45,13.40
2023,11,04,02,46,13.40
2023,11,04,02,47,13.40
2023,11,04,02,48,13.40
2023,11,04,02,49,13.40
2023,11,04,02,50,13.40
2023,11,04,02,51,13.40
2023,11,04,02,52,13.40
2023,11,04,02,53,13.40
2023,11,04,02,54,13.40
2023,11,04,02,55,13.50
2023,11,04,02,56,13.50
2023,11,04,02,57,13.50
2023,11,04,02,58,13.50
2023,11,04,02,59,13.50
2023,11,04,03,00,13.50
2023,11,04,03,01,13.50
2023,11,04,03,02,13.50
2023,11,04,03,03,13.50
2023,11,04,03,04,13.50
2023,11,04,03,05,13.50
2023,11,04,03,06,13.50
2023,11,04,03,07,13.50
2023,11,04,03,08,13.50
2023,11,04,03,09,13.50
2023,11,04,03,10,13.60
2023,11,04,03,11,13.60
2023,11,04,03,12,13.60
2023,11,04,03,13,13.60
2023,11,04,03,14,13.60
2023,11,04,03,15,13.60
2023,11,04,03,16,13.60
2023,11,04,03,17,13.60
2023,11,04,03,18,13.60
2023,11,04,03,19,13.60
2023,11,04,03,20,13.60
2023,11,04,03,21,13.60
2023,11,04,03,22,13.60
2023,11,04,03,23,13.60
2023,11,04,03,24,13.70
2023,11,04,03,25,13.70
2023,11,04,03,26,13.70
2023,11,04,03,27,13.70
2023,11,04,03,28,13.70
2023,11,04,03,29,13.70
2023,11,04,03,30,13.70
2023,11,04,03,31,13.70
2023,11,04,03,32,13.70
2023,11,04,03,33,13.70
2023,11,04,03,34,13.70
2023,11,04,03,35,13.70
2023,11,04,03,36,13.70
2023,11,04,03,37,13.70
2023,11,04,03,38,13.70
2023,11,04,03,39,13.70
2023,11,04,03,40,13.70
2023,11,04,03,41,13.70
2023,11,04,03,42,13.70
2023,11,04,03,43,13.70
2023,11,04,03,44,13.70
2023,11,04,03,45,13.70
2023,11,04,03,46,13.70
2023,11,04,03,47,13.70
2023,11,04,03,48,13.70
2023,11,04,03,49,13.70
2023,11,04,03,50,13.70
2023,11,04,03,51,13.70
2023,11,04,03,52,13.70
2023,11,04,03,53,13.70
2023,11,04,03,54,13.70
2023,11,04,03,55,13.70
2023,11,04,03,56,13.70
2023,11,04,03,57,13.70
2023,11,04,03,58,13.70
2023,11,04,03,59,13.70
2023,11,04,04,00,13.70
2023,11,04,04,01,13.70
2023,11,04,04,02,13.70
2023,11,04,04,03,13.70
2023,11,04,04,04,13.70
2023,11,04,04,05,13.70
2023,11,04,04,06,13.70
2023,11,04,04,07,13.70
2023,11,04,04,08,13.70
2023,11,04,04,09,13.70
2023,11,04,04,10,13.70
2023,11,04,04,11,13.70
2023,11,04,04,12,13.70
2023,11,04,04,13,13.70
2023,11,04,04,14,13.70
2023,11,04,04,15,13.70
2023,11,04,04,16,13.70
2023,11,04,04,17,13.70
2023,11,04,04,18,13.70
2023,11,04,04,19,13.70
2023,11,04,04,20,13.70
2023,11,04,04,21,13.70
2023,11,04,04,22,13.70
2023,11,04,04,23,13.80
2023,11,04,04,24,13.80
2023,11,04,04,25,13.80
2023,11,04,04,26,13.90
2023,11,04,04,27,14.00
2023,11,04,04,28,14.00
2023,11,04,04,29,14.00
2023,11,04,04,30,14.10
2023,11,04,04,31,14.10
2023,11,04,04,32,14.10
2023,11,04,04,33,14.10
2023,11,04,04,34,14.10
2023,11,04,04,35,14.10
2023,11,04,04,36,14.10
2023,11,04,04,37,14.10
2023,11,04,04,38,14.10
2023,11,04,04,39,14.10
2023,11,04,04,40,14.10
2023,11,04,04,41,14.10
2023,11,04,04,42,14.10
2023,11,04,04,43,14.10
2023,11,04,04,44,14.20
2023,11,04,04,45,14.20
2023,11,04,04,46,14.20
2023,11,04,04,47,14.20
2023,11,04,04,48,14.20
2023,11,04,04,49,14.20
2023,11,04,04,50,14.20
2023,11,04,04,51,14.20
2023,11,04,04,52,14.20
2023,11,04,04,53,14.20
2023,11,04,04,54,14.20
2023,11,04,04,55,14.20
2023,11,04,04,56,14.30
2023,11,04,04,57,14.20
2023,11,04,04,58,14.20
2023,11,04,04,59,14.30
2023,11,04,05,00,14.20
2023,11,04,05,01,14.20
2023,11,04,05,02,14.20
2023,11,04,05,03,14.20
2023,11,04,05,04,14.20
2023,11,04,05,05,14.20
2023,11,04,05,06,14.20
2023,11,04,05,07,14.20
2023,11,04,05,08,14.20
2023,11,04,05,09,14.20
2023,11,04,05,10,14.20
2023,11,04,05,11,14.20
2023,11,04,05,12,14.20
2023,11,04,05,13,14.40
2023,11,04,05,14,14.50
2023,11,04,05,15,14.40
2023,11,04,05,16,14.40
2023,11,04,05,17,14.50
2023,11,04,05,18,14.50
2023,11,04,05,19,14.50
2023,11,04,05,20,14.50
2023,11,04,05,21,14.60
2023,11,04,05,22,14.60
2023,11,04,05,23,14.50
2023,11,04,05,24,14.50
2023,11,04,05,25,14.50
2023,11,04,05,26,14.50
2023,11,04,05,27,14.50
2023,11,04,05,28,14.50
2023,11,04,05,29,14.50
2023,11,04,05,30,14.50
2023,11,04,05,31,14.50
2023,11,04,05,32,14.50
2023,11,04,05,33,14.50
2023,11,04,05,34,14.50
2023,11,04,05,35,14.50
2023,11,04,05,36,14.50
2023,11,04,05,37,14.50
2023,11,04,05,38,14.50
2023,11,04,05,39,14.50
2023,11,04,05,40,14.50
2023,11,04,05,41,14.50
2023,11,04,05,42,14.50
2023,11,04,05,43,14.50
2023,11,04,05,44,14.50
2023,11,04,05,45,14.60
2023,11,04,05,46,14.60
2023,11,04,05,47,14.60
2023,11,04,05,48,14.60
2023,11,04,05,49,14.60
2023,11,04,05,50,14.60
2023,11,04,05,51,14.50
2023,11,04,05,52,14.60
2023,11,04,05,53,14.50
2023,11,04,05,54,14.60
2023,11,04,05,55,14.60
2023,11,04,05,56,14.60
2023,11,04,05,57,14.60
2023,11,04,05,58,14.60
2023,11,04,05,59,14.60
2023,11,04,06,00,14.60
2023,11,04,06,01,14.60
2023,11,04,06,02,14.60
2023,11,04,06,03,14.60
2023,11,04,06,04,14.60
2023,11,04,06,05,14.60
2023,11,04,06,06,14.60
2023,11,04,06,07,14.60
2023,11,04,06,08,14.60
2023,11,04,06,09,14.60
2023,11,04,06,10,14.60
2023,11,04,06,11,14.60
2023,11,04,06,12,14.60
2023,11,04,06,13,14.60
2023,11,04,06,14,14.60
2023,11,04,06,15,14.60
2023,11,04,06,16,14.60
2023,11,04,06,17,14.60
2023,11,04,06,18,14.60
2023,11,04,06,19,14.60
2023,11,04,06,20,14.60
2023,11,04,06,21,14.60
2023,11,04,06,22,14.60
2023,11,04,06,23,14.70
2023,11,04,06,24,14.70
2023,11,04,06,25,14.70
2023,11,04,06,26,14.70
2023,11,04,06,27,14.70
2023,11,04,06,28,14.70
2023,11,04,06,29,14.70
2023,11,04,06,30,14.70
2023,11,04,06,31,14.70
2023,11,04,06,32,14.70
2023,11,04,06,33,14.70
2023,11,04,06,34,14.70
2023,11,04,06,35,14.70
2023,11,04,06,36,14.70
2023,11,04,06,37,14.70
2023,11,04,06,38,14.70
2023,11,04,06,39,14.70
2023,11,04,06,40,14.70
2023,11,04,06,41,14.70
2023,11,04,06,42,14.70
2023,11,04,06,43,14.70
2023,11,04,06,44,14.70
2023,11,04,06,45,14.70
2023,11,04,06,46,14.70
2023,11,04,06,47,14.70
2023,11,04,06,48,14.70
2023,11,04,06,49,14.70
2023,11,04,06,50,14.70
2023,11,04,06,51,14.70
2023,11,04,06,52,14.70
2023,11,04,06,53,14.70
2023,11,04,06,54,14.70
2023,11,04,06,55,14.70
2023,11,04,06,56,14.80
2023,11,04,06,57,14.80
2023,11,04,06,58,14.80
2023,11,04,06,59,14.80
2023,11,04,07,00,14.80
2023,11,04,07,01,14.80
2023,11,04,07,02,14.80
2023,11,04,07,03,14.80
2023,11,04,07,04,14.80
2023,11,04,07,05,14.80
2023,11,04,07,06,14.80
2023,11,04,07,07,14.80
2023,11,04,07,08,14.70
2023,11,04,07,09,14.70
2023,11,04,07,10,14.70
2023,11,04,07,11,14.70
2023,11,04,07,12,14.80
2023,11,04,07,13,14.80
2023,11,04,07,14,14.80
2023,11,04,07,15,14.80
2023,11,04,07,16,14.80
2023,11,04,07,17,14.80
2023,11,04,07,18,14.80
2023,11,04,07,19,14.80
2023,11,04,07,20,14.80
2023,11,04,07,21,14.80
2023,11,04,07,22,14.80
2023,11,04,07,23,14.80
2023,11,04,07,24,14.80
2023,11,04,07,25,14.80
2023,11,04,07,26,14.80
2023,11,04,07,27,14.80
2023,11,04,07,28,14.80
2023,11,04,07,29,14.80
2023,11,04,07,30,14.80
2023,11,04,07,31,14.80
2023,11,04,07,32,14.80
2023,11,04,07,33,14.80
2023,11,04,07,34,14.80
2023,11,04,07,35,14.80
2023,11,04,07,36,14.80
2023,11,04,07,37,14.80
2023,11,04,07,38,14.80
2023,11,04,07,39,14.80
2023,11,04,07,40,14.90
2023,11,04,07,41,14.90
2023,11,04,07,42,14.80
2023,11,04,07,43,14.90
2023,11,04,07,44,14.90
2023,11,04,07,45,14.80
2023,11,04,07,46,14.90
2023,11,04,07,47,14.90
2023,11,04,07,48,14.80
2023,11,04,07,49,14.90
2023,11,04,07,50,14.90
2023,11,04,07,51,14.90
2023,11,04,07,52,14.90
2023,11,04,07,53,14.90
2023,11,04,07,54,15.00
2023,11,04,07,55,14.90
2023,11,04,07,56,14.90
2023,11,04,07,57,14.90
2023,11,04,07,58,14.90
2023,11,04,07,59,14.80
2023,11,04,08,00,14.90
2023,11,04,08,01,14.90
2023,11,04,08,02,14.90
2023,11,04,08,03,14.90
2023,11,04,08,04,14.90
2023,11,04,08,05,14.90
2023,11,04,08,06,14.90
2023,11,04,08,07,15.00
2023,11,04,08,08,15.00
2023,11,04,08,09,15.00
2023,11,04,08,10,15.00
2023,11,04,08,11,15.00
2023,11,04,08,12,15.00
2023,11,04,08,13,15.00
2023,11,04,08,14,14.90
2023,11,04,08,15,14.90
2023,11,04,08,16,14.90
2023,11,04,08,17,14.90
2023,11,04,08,18,14.90
2023,11,04,08,19,14.90
2023,11,04,08,20,14.90
2023,11,04,08,21,14.90
2023,11,04,08,22,14.90
2023,11,04,08,23,15.00
2023,11,04,08,24,15.00
2023,11,04,08,25,15.00
2023,11,04,08,26,15.00
2023,11,04,08,27,15.00
2023,11,04,08,28,15.10
2023,11,04,08,29,15.10
2023,11,04,08,30,15.10
2023,11,04,08,31,15.10
2023,11,04,08,32,15.10
2023,11,04,08,33,15.20
2023,11,04,08,34,15.20
2023,11,04,08,35,15.20
2023,11,04,08,36,15.20
2023,11,04,08,37,15.20
2023,11,04,08,38,15.20
2023,11,04,08,39,15.30
2023,11,04,08,40,15.30
2023,11,04,08,41,15.30
2023,11,04,08,42,15.30
2023,11,04,08,43,15.30
2023,11,04,08,44,15.30
2023,11,04,08,45,15.30
2023,11,04,08,46,15.30
2023,11,04,08,47,15.30
2023,11,04,08,48,15.30
2023,11,04,08,49,15.30
2023,11,04,08,50,15.40
2023,11,04,08,51,15.30
2023,11,04,08,52,15.40
2023,11,04,08,53,15.40
2023,11,04,08,54,15.40
2023,11,04,08,55,15.40
2023,11,04,08,56,15.40
2023,11,04,08,57,15.40
2023,11,04,08,58,15.40
2023,11,04,08,59,15.40
2023,11,04,09,00,15.40
2023,11,04,09,01,15.40
2023,11,04,09,02,15.50
2023,11,04,09,03,15.50
2023,11,04,09,04,15.50
2023,11,04,09,05,15.50
2023,11,04,09,06,15.40
2023,11,04,09,07,15.40
2023,11,04,09,08,15.40
2023,11,04,09,09,15.40
2023,11,04,09,10,15.40
2023,11,04,09,11,15.40
2023,11,04,09,12,15.30
2023,11,04,09,13,15.40
2023,11,04,09,14,15.40
2023,11,04,09,15,15.40
2023,11,04,09,16,15.40
2023,11,04,09,17,15.40
2023,11,04,09,18,15.40
2023,11,04,09,19,15.40
2023,11,04,09,20,15.40
2023,11,04,09,21,15.50
2023,11,04,09,22,15.50
2023,11,04,09,23,15.40
2023,11,04,09,24,15.50
2023,11,04,09,25,15.50
2023,11,04,09,26,15.50
2023,11,04,09,27,15.40
2023,11,04,09,28,15.50
2023,11,04,09,29,15.50
2023,11,04,09,30,15.50
2023,11,04,09,31,15.50
2023,11,04,09,32,15.50
2023,11,04,09,33,15.40
2023,11,04,09,34,15.40
2023,11,04,09,35,15.50
2023,11,04,09,36,15.50
2023,11,04,09,37,15.40
2023,11,04,09,38,15.50
2023,11,04,09,39,15.50
2023,11,04,09,40,15.50
2023,11,04,09,41,15.50
2023,11,04,09,42,15.50
2023,11,04,09,43,15.50
2023,11,04,09,44,15.50
2023,11,04,09,45,15.50
2023,11,04,09,46,15.50
2023,11,04,09,47,15.50
2023,11,04,09,48,15.50
2023,11,04,09,49,15.50
2023,11,04,09,50,15.50
2023,11,04,09,51,15.50
2023,11,04,09,52,15.50
2023,11,04,09,53,15.50
2023,11,04,09,54,15.50
2023,11,04,09,55,15.50
2023,11,04,09,56,15.50
2023,11,04,09,57,15.50
2023,11,04,09,58,15.50
2023,11,04,09,59,15.50
2023,11,04,10,00,15.50
2023,11,04,10,01,15.50
2023,11,04,10,02,15.50
2023,11,04,10,03,15.50
2023,11,04,10,04,15.50
2023,11,04,10,05,15.50
2023,11,04,10,06,15.50
2023,11,04,10,07,15.50
2023,11,04,10,08,15.50
2023,11,04,10,09,15.50
2023,11,04,10,10,15.50
2023,11,04,10,11,15.50
2023,11,04,10,12,15.60
2023,11,04,10,13,15.60
2023,11,04,10,14,15.60
2023,11,04,10,15,15.60
2023,11,04,10,16,15.60
2023,11,04,10,17,15.60
2023,11,04,10,18,15.60
2023,11,04,10,19,15.60
2023,11,04,10,20,15.50
2023,11,04,10,21,15.40
2023,11,04,10,22,15.30
2023,11,04,10,23,15.20
2023,11,04,10,24,15.20
2023,11,04,10,25,15.10
2023,11,04,10,26,15.00
2023,11,04,10,27,15.00
2023,11,04,10,28,15.00
2023,11,04,10,29,15.00
2023,11,04,10,30,15.00
2023,11,04,10,31,15.00
2023,11,04,10,32,15.00
2023,11,04,10,33,15.10
2023,11,04,10,34,15.10
2023,11,04,10,35,15.10
2023,11,04,10,36,15.20
2023,11,04,10,37,15.20
2023,11,04,10,38,15.30
2023,11,04,10,39,15.30
2023,11,04,10,40,15.30
2023,11,04,10,41,15.30
2023,11,04,10,42,15.40
2023,11,04,10,43,15.50
2023,11,04,10,44,15.50
2023,11,04,10,45,15.60
2023,11,04,10,46,15.60
2023,11,04,10,47,15.60
2023,11,04,10,48,15.70
2023,11,04,10,49,15.70
2023,11,04,10,50,15.80
2023,11,04,10,51,15.80
2023,11,04,10,52,15.80
2023,11,04,10,53,15.80
2023,11,04,10,54,15.80
2023,11,04,10,55,15.80
2023,11,04,10,56,15.90
2023,11,04,10,57,16.00
2023,11,04,10,58,16.00
2023,11,04,10,59,16.10
2023,11,04,11,00,16.10
2023,11,04,11,01,16.20
2023,11,04,11,02,16.20
2023,11,04,11,03,16.30
2023,11,04,11,04,16.30
2023,11,04,11,05,16.40
2023,11,04,11,06,16.50
2023,11,04,11,07,16.50
2023,11,04,11,08,16.60
2023,11,04,11,09,16.60
2023,11,04,11,10,16.60
2023,11,04,11,11,16.50
2023,11,04,11,12,16.60
2023,11,04,11,13,16.60
2023,11,04,11,14,16.60
2023,11,04,11,15,16.60
2023,11,04,11,16,16.70
2023,11,04,11,17,16.90
2023,11,04,11,18,16.90
2023,11,04,11,19,17.00
2023,11,04,11,20,17.00
2023,11,04,11,21,17.00
2023,11,04,11,22,17.10
2023,11,04,11,23,17.10
2023,11,04,11,24,17.20
2023,11,04,11,25,17.20
2023,11,04,11,26,17.30
2023,11,04,11,27,17.40
2023,11,04,11,28,17.40
2023,11,04,11,29,17.50
2023,11,04,11,30,17.50
2023,11,04,11,31,17.50
2023,11,04,11,32,17.50
2023,11,04,11,33,17.50
2023,11,04,11,34,17.60
2023,11,04,11,35,17.90
2023,11,04,11,36,18.00
2023,11,04,11,37,18.10
2023,11,04,11,38,18.00
2023,11,04,11,39,17.90
2023,11,04,11,40,17.90
2023,11,04,11,41,17.90
2023,11,04,11,42,17.90
2023,11,04,11,43,17.90
2023,11,04,11,44,17.90
2023,11,04,11,45,17.80
2023,11,04,11,46,17.80
2023,11,04,11,47,17.60
2023,11,04,11,48,17.50
2023,11,04,11,49,17.40
2023,11,04,11,50,17.30
2023,11,04,11,51,17.20
2023,11,04,11,52,17.10
2023,11,04,11,53,17.00
2023,11,04,11,54,16.90
2023,11,04,11,55,16.70
2023,11,04,11,56,16.70
2023,11,04,11,57,16.60
2023,11,04,11,58,16.40
2023,11,04,11,59,16.30
2023,11,04,12,00,16.20
2023,11,04,12,01,16.10
2023,11,04,12,02,16.10
2023,11,04,12,03,16.00
2023,11,04,12,04,16.00
2023,11,04,12,05,15.90
2023,11,04,12,06,15.90
2023,11,04,12,07,15.90
2023,11,04,12,08,15.90
2023,11,04,12,09,15.90
2023,11,04,12,10,15.90
2023,11,04,12,11,15.90
2023,11,04,12,12,15.90
2023,11,04,12,13,16.00
2023,11,04,12,14,16.10
2023,11,04,12,15,16.10
2023,11,04,12,16,16.10
2023,11,04,12,17,16.10
2023,11,04,12,18,16.10
2023,11,04,12,19,16.10
2023,11,04,12,20,16.10
2023,11,04,12,21,16.10
2023,11,04,12,22,16.10
2023,11,04,12,23,16.10
2023,11,04,12,24,16.10
2023,11,04,12,25,16.10
2023,11,04,12,26,16.10
2023,11,04,12,27,16.10
2023,11,04,12,28,16.20
2023,11,04,12,29,16.20
2023,11,04,12,30,16.30
2023,11,04,12,31,16.40
2023,11,04,12,32,16.40
2023,11,04,12,33,16.40
2023,11,04,12,34,16.40
2023,11,04,12,35,16.50
2023,11,04,12,36,16.60
2023,11,04,12,37,16.60
2023,11,04,12,38,16.70
2023,11,04,12,39,16.70
2023,11,04,12,40,16.80
2023,11,04,12,41,16.80
2023,11,04,12,42,16.90
2023,11,04,12,43,17.00
2023,11,04,12,44,17.10
2023,11,04,12,45,17.10
2023,11,04,12,46,17.10
2023,11,04,12,47,17.10
2023,11,04,12,48,17.10
2023,11,04,12,49,17.20
2023,11,04,12,50,17.20
2023,11,04,12,51,17.30
2023,11,04,12,52,17.30
2023,11,04,12,53,17.30
2023,11,04,12,54,17.30
2023,11,04,12,55,17.30
2023,11,04,12,56,17.30
2023,11,04,12,57,17.30
2023,11,04,12,58,17.30
2023,11,04,12,59,17.30
2023,11,04,13,00,17.30
2023,11,04,13,01,17.30
2023,11,04,13,02,17.30
2023,11,04,13,03,17.40
2023,11,04,13,04,17.40
2023,11,04,13,05,17.50
2023,11,04,13,06,17.50
2023,11,04,13,07,17.60
2023,11,04,13,08,17.60
2023,11,04,13,09,17.60
2023,11,04,13,10,17.70
2023,11,04,13,11,17.70
2023,11,04,13,12,17.70
2023,11,04,13,13,17.80
2023,11,04,13,14,17.80
2023,11,04,13,15,17.80
2023,11,04,13,16,17.80
2023,11,04,13,17,17.80
2023,11,04,13,18,17.80
2023,11,04,13,19,17.80
2023,11,04,13,20,17.80
2023,11,04,13,21,17.80
2023,11,04,13,22,17.80
2023,11,04,13,23,17.80
2023,11,04,13,24,17.80
2023,11,04,13,25,17.80
2023,11,04,13,26,17.80
2023,11,04,13,27,17.80
2023,11,04,13,28,17.80
2023,11,04,13,29,17.80
2023,11,04,13,30,17.80
2023,11,04,13,31,17.70
2023,11,04,13,32,17.70
2023,11,04,13,33,17.70
2023,11,04,13,34,17.60
2023,11,04,13,35,17.60
2023,11,04,13,36,17.60
2023,11,04,13,37,17.60
2023,11,04,13,38,17.70
2023,11,04,13,39,17.70
2023,11,04,13,40,17.60
2023,11,04,13,41,17.60
2023,11,04,13,42,17.60
2023,11,04,13,43,17.60
2023,11,04,13,44,17.60
2023,11,04,13,45,17.60
2023,11,04,13,46,17.60
2023,11,04,13,47,17.60
2023,11,04,13,48,17.60
2023,11,04,13,49,17.70
2023,11,04,13,50,17.70
2023,11,04,13,51,17.70
2023,11,04,13,52,17.70
2023,11,04,13,53,17.70
2023,11,04,13,54,17.70
2023,11,04,13,55,17.70
2023,11,04,13,56,17.70
2023,11,04,13,57,17.70
2023,11,04,13,58,17.70
2023,11,04,13,59,17.70
2023,11,04,14,00,17.70
2023,11,04,14,01,17.70
2023,11,04,14,02,17.70
2023,11,04,14,03,17.70
2023,11,04,14,04,17.70
2023,11,04,14,05,17.70
2023,11,04,14,06,17.70
2023,11,04,14,07,17.70
2023,11,04,14,08,17.80
2023,11,04,14,09,17.80
2023,11,04,14,10,17.80
2023,11,04,14,11,17.80
2023,11,04,14,12,17.80
2023,11,04,14,13,17.90
2023,11,04,14,14,17.90
2023,11,04,14,15,17.90
2023,11,04,14,16,17.90
2023,11,04,14,17,17.80
2023,11,04,14,18,17.70
2023,11,04,14,19,17.60
2023,11,04,14,20,17.50
2023,11,04,14,21,17.50
2023,11,04,14,22,17.40
2023,11,04,14,23,17.30
2023,11,04,14,24,17.30
2023,11,04,14,25,17.20
2023,11,04,14,26,17.10
2023,11,04,14,27,17.00
2023,11,04,14,28,17.00
2023,11,04,14,29,16.90
2023,11,04,14,30,16.90
2023,11,04,14,31,16.80
2023,11,04,14,32,16.80
2023,11,04,14,33,16.70
2023,11,04,14,34,16.60
2023,11,04,14,35,16.50
2023,11,04,14,36,16.30
2023,11,04,14,37,16.20
2023,11,04,14,38,16.10
2023,11,04,14,39,16.00
2023,11,04,14,40,15.90
2023,11,04,14,41,15.80
2023,11,04,14,42,15.70
2023,11,04,14,43,15.70
2023,11,04,14,44,15.70
2023,11,04,14,45,15.60
2023,11,04,14,46,15.60
2023,11,04,14,47,15.50
2023,11,04,14,48,15.50
2023,11,04,14,49,15.50
2023,11,04,14,50,15.40
2023,11,04,14,51,15.40
2023,11,04,14,52,15.40
2023,11,04,14,53,15.30
2023,11,04,14,54,15.40
2023,11,04,14,55,15.30
2023,11,04,14,56,15.30
2023,11,04,14,57,15.20
2023,11,04,14,58,15.20
2023,11,04,14,59,15.20
2023,11,04,15,00,15.10
2023,11,04,15,01,15.10
2023,11,04,15,02,15.10
2023,11,04,15,03,15.10
2023,11,04,15,04,15.10
2023,11,04,15,05,15.20
2023,11,04,15,06,15.30
2023,11,04,15,07,15.30
2023,11,04,15,08,15.30
2023,11,04,15,09,15.30
2023,11,04,15,10,15.40
2023,11,04,15,11,15.30
2023,11,04,15,12,15.30
2023,11,04,15,13,15.30
2023,11,04,15,14,15.30
2023,11,04,15,15,15.30
2023,11,04,15,16,15.30
2023,11,04,15,17,15.30
2023,11,04,15,18,15.30
2023,11,04,15,19,15.30
2023,11,04,15,20,15.30
2023,11,04,15,21,15.30
2023,11,04,15,22,15.30
2023,11,04,15,23,15.30
2023,11,04,15,24,15.30
2023,11,04,15,25,15.30
2023,11,04,15,26,15.30
2023,11,04,15,27,15.40
2023,11,04,15,28,15.40
2023,11,04,15,29,15.40
2023,11,04,15,30,15.40
2023,11,04,15,31,15.50
2023,11,04,15,32,15.50
2023,11,04,15,33,15.60
2023,11,04,15,34,15.70
2023,11,04,15,35,15.80
2023,11,04,15,36,15.80
2023,11,04,15,37,15.80
2023,11,04,15,38,15.90
2023,11,04,15,39,16.00
2023,11,04,15,40,16.10
2023,11,04,15,41,16.10
2023,11,04,15,42,16.10
2023,11,04,15,43,16.10
2023,11,04,15,44,16.10
2023,11,04,15,45,16.10
2023,11,04,15,46,16.10
2023,11,04,15,47,16.10
2023,11,04,15,48,16.10
2023,11,04,15,49,16.10
2023,11,04,15,50,16.00
2023,11,04,15,51,15.90
2023,11,04,15,52,15.80
2023,11,04,15,53,15.80
2023,11,04,15,54,15.80
2023,11,04,15,55,15.80
2023,11,04,15,56,15.80
2023,11,04,15,57,15.80
2023,11,04,15,58,15.80
2023,11,04,15,59,15.80
2023,11,04,16,00,15.70
2023,11,04,16,01,15.80
2023,11,04,16,02,15.80
2023,11,04,16,03,15.80
2023,11,04,16,04,15.70
2023,11,04,16,05,15.70
2023,11,04,16,06,15.60
2023,11,04,16,07,15.60
2023,11,04,16,08,15.60
2023,11,04,16,09,15.60
2023,11,04,16,10,15.60
2023,11,04,16,11,15.50
2023,11,04,16,12,15.50
2023,11,04,16,13,15.40
2023,11,04,16,14,15.30
2023,11,04,16,15,15.30
2023,11,04,16,16,15.30
2023,11,04,16,17,15.30
2023,11,04,16,18,15.30
2023,11,04,16,19,15.30
2023,11,04,16,20,15.30
2023,11,04,16,21,15.30
2023,11,04,16,22,15.30
2023,11,04,16,23,15.30
2023,11,04,16,24,15.30
2023,11,04,16,25,15.30
2023,11,04,16,26,15.30
2023,11,04,16,27,15.30
2023,11,04,16,28,15.30
2023,11,04,16,29,15.30
2023,11,04,16,30,15.40
2023,11,04,16,31,15.40
2023,11,04,16,32,15.40
2023,11,04,16,33,15.40
2023,11,04,16,34,15.40
2023,11,04,16,35,15.40
2023,11,04,16,36,15.40
2023,11,04,16,37,15.40
2023,11,04,16,38,15.40
2023,11,04,16,39,15.40
2023,11,04,16,40,15.40
2023,11,04,16,41,15.40
2023,11,04,16,42,15.40
2023,11,04,16,43,15.30
2023,11,04,16,44,15.30
2023,11,04,16,45,15.30
2023,11,04,16,46,15.30
2023,11,04,16,47,15.30
2023,11,04,16,48,15.30
2023,11,04,16,49,15.30
2023,11,04,16,50,15.30
2023,11,04,16,51,15.20
2023,11,04,16,52,15.20
2023,11,04,16,53,15.10
2023,11,04,16,54,15.10
2023,11,04,16,55,15.10
2023,11,04,16,56,15.00
2023,11,04,16,57,15.00
2023,11,04,16,58,15.00
2023,11,04,16,59,15.00
2023,11,04,17,00,14.90
2023,11,04,17,01,14.90
2023,11,04,17,02,14.90
2023,11,04,17,03,14.90
2023,11,04,17,04,14.90
2023,11,04,17,05,14.80
2023,11,04,17,06,14.80
2023,11,04,17,07,14.80
2023,11,04,17,08,14.80
2023,11,04,17,09,14.80
2023,11,04,17,10,14.80
2023,11,04,17,11,14.80
2023,11,04,17,12,14.80
2023,11,04,17,13,14.80
2023,11,04,17,14,14.80
2023,11,04,17,15,14.80
2023,11,04,17,16,14.80
2023,11,04,17,17,14.80
2023,11,04,17,18,14.80
2023,11,04,17,19,14.80